Home   Weather   Richmond   Past weeks
Flag for Australia

Past Weather in Richmond, New South Wales, Australia — June 2017

Currently: 48 °F. Passing clouds. (Weather station: Sydney Airport, Australia). See more current weather

June 2017 Weather in Richmond — Graph

°F

High & Low Weather Summary for June 2017

 TemperatureHumidityPressure
High72 °F (Jun 15, 2:00 pm)100% (Jun 5, 2:30 am)30.51 "Hg (Jun 5, 2:30 am)
Low45 °F (Jun 25, 5:00 am)37% (Jun 25, 2:00 pm)29.92 "Hg (Jun 24, 3:53 am)
Average58 °F79%30.25 "Hg
* Reported Jun 1 12:30 am — Jun 30 11:30 pm, Richmond. Weather by CustomWeather, © 2024

Note: Actual official high and low records may vary slightly from our data, if they occured in-between our weather recording intervals... More about our weather records

Richmond Weather History for June 1, 2017

Scroll right to see more
 ConditionsComfort  
Time TempWeatherWind HumidityBarometerVisibility
12:30 am
Thu, Jun 1
48 °FClear.13 mph62%30.42 "Hg10 mi
1:00 am48 °FPassing clouds.14 mph62%30.42 "HgN/A
1:30 am48 °FClear.16 mph62%30.42 "Hg10 mi
2:00 am48 °FClear.15 mph62%30.42 "Hg10 mi
2:30 am48 °FClear.13 mph62%30.42 "Hg10 mi
3:00 am48 °FClear.13 mph66%30.42 "Hg10 mi
4:00 am46 °FClear.16 mph71%30.42 "Hg10 mi
5:00 am46 °FClear.15 mph66%30.42 "Hg10 mi
5:30 am46 °FClear.17 mph71%30.45 "Hg10 mi
6:00 am46 °FClear.14 mph66%30.45 "Hg10 mi
6:30 am46 °FClear.16 mph66%30.45 "Hg10 mi
7:30 am48 °FSunny.16 mph66%30.48 "Hg10 mi
8:00 am48 °FSunny.17 mph66%30.48 "Hg10 mi
8:30 am50 °FSunny.17 mph62%30.48 "Hg10 mi
9:30 am54 °FPassing clouds.12 mph54%30.51 "HgN/A
10:00 am55 °FPassing clouds.10 mph51%30.51 "HgN/A
11:00 am59 °FPassing clouds.9 mph55%30.48 "HgN/A
11:30 am59 °FPassing clouds.21 mph59%30.48 "HgN/A
12:00 pm59 °FPassing clouds.21 mph59%30.45 "HgN/A
12:30 pm61 °FPassing clouds.20 mph55%30.45 "HgN/A
1:00 pm61 °FPassing clouds.20 mph55%30.45 "HgN/A
1:30 pm61 °FPassing clouds.20 mph55%30.45 "HgN/A
2:00 pm61 °FPassing clouds.17 mph55%30.45 "HgN/A
2:30 pm61 °FPassing clouds.18 mph55%30.45 "HgN/A
3:00 pm61 °FPassing clouds.18 mph55%30.45 "HgN/A
3:30 pm61 °FPassing clouds.20 mph55%30.45 "HgN/A
4:00 pm61 °FPassing clouds.18 mph59%30.45 "HgN/A
4:30 pm59 °FPassing clouds.17 mph63%30.45 "HgN/A
5:30 pm57 °FPassing clouds.12 mph59%30.45 "HgN/A
6:00 pm57 °FPassing clouds.13 mph59%30.45 "HgN/A
6:30 pm57 °FPassing clouds.14 mph55%30.45 "HgN/A
7:00 pm57 °FPassing clouds.14 mph59%30.45 "HgN/A
7:30 pm57 °FPassing clouds.13 mph55%30.48 "HgN/A
8:00 pm57 °FPassing clouds.12 mph55%30.48 "HgN/A
8:30 pm57 °FPassing clouds.13 mph55%30.48 "HgN/A
9:00 pm55 °FPassing clouds.12 mph59%30.48 "HgN/A
10:00 pm55 °FClear.13 mph59%30.45 "Hg10 mi
11:00 pm57 °FPassing clouds.13 mph59%30.48 "HgN/A
Weather by CustomWeather, © 2024

See weather overview